Time,TemperatureF,DewpointF,PressureIn,WindDirection,WindDirectionDegrees,WindSpeedMPH,WindSpeedGustMPH,Humidity,HourlyPrecipIn,Conditions,Clouds,dailyrainin,SoftwareType,DateUTC
2013-10-03 00:05:00,82.8,82.8,29.91,ENE,71,1.0,4.0,100,0.00,,,0.00,Wunderground v.1.15,2013-10-03 04:05:00,
2013-10-03 00:10:00,82.8,82.8,29.91,East,93,1.0,1.0,100,0.00,,,0.00,Wunderground v.1.15,2013-10-03 04:10:00,
2013-10-03 00:15:00,82.8,82.8,29.91,SE,130,1.0,6.0,100,0.00,,,0.00,Wunderground v.1.15,2013-10-03 04:15:00,
2013-10-03 00:25:00,82.6,82.6,29.91,ESE,119,5.0,5.0,100,0.00,,,0.00,Wunderground v.1.15,2013-10-03 04:25:00,
2013-10-03 00:30:00,82.6,82.6,29.91,ESE,110,4.0,5.0,100,0.00,,,0.00,Wunderground v.1.15,2013-10-03 04:30:00,
2013-10-03 00:35:00,82.8,82.8,29.91,ESE,112,3.0,5.0,100,0.00,,,0.00,Wunderground v.1.15,2013-10-03 04:35:00,
2013-10-03 00:40:00,82.8,82.8,29.91,ESE,102,3.0,3.0,100,0.00,,,0.00,Wunderground v.1.15,2013-10-03 04:40:00,
2013-10-03 00:50:00,82.4,82.4,29.91,ESE,117,3.0,6.0,100,0.00,,,0.00,Wunderground v.1.15,2013-10-03 04:50:00,
2013-10-03 00:55:00,82.2,82.2,29.91,SE,124,4.0,8.0,100,0.00,,,0.00,Wunderground v.1.15,2013-10-03 04:55:00,
2013-10-03 01:05:00,82.0,82.0,29.91,East,90,3.0,5.0,100,0.00,,,0.00,Wunderground v.1.15,2013-10-03 05:05:00,
2013-10-03 01:20:00,82.0,82.0,29.90,ENE,72,1.0,1.0,100,0.00,,,0.00,Wunderground v.1.15,2013-10-03 05:20:00,
2013-10-03 01:25:00,82.2,82.2,29.90,East,100,1.0,1.0,100,0.00,,,0.00,Wunderground v.1.15,2013-10-03 05:25:00,
2013-10-03 01:30:00,82.2,82.2,29.89,ESE,117,1.0,1.0,100,0.00,,,0.00,Wunderground v.1.15,2013-10-03 05:30:00,
2013-10-03 01:40:00,82.4,82.4,29.89,ESE,103,1.0,1.0,100,0.00,,,0.00,Wunderground v.1.15,2013-10-03 05:40:00,
2013-10-03 01:45:00,82.4,82.4,29.89,SE,126,1.0,7.0,100,0.00,,,0.00,Wunderground v.1.15,2013-10-03 05:45:00,
2013-10-03 01:50:00,82.4,82.4,29.89,ESE,104,2.0,2.0,100,0.00,,,0.00,Wunderground v.1.15,2013-10-03 05:50:00,
2013-10-03 02:00:00,82.2,82.2,29.88,ESE,117,2.0,2.0,100,0.00,,,0.00,Wunderground v.1.15,2013-10-03 06:00:00,
2013-10-03 02:05:00,82.4,82.4,29.88,ESE,102,2.0,5.0,100,0.00,,,0.00,Wunderground v.1.15,2013-10-03 06:05:00,
2013-10-03 02:10:00,82.6,82.6,29.88,East,89,1.0,5.0,100,0.00,,,0.00,Wunderground v.1.15,2013-10-03 06:10:00,
2013-10-03 02:20:00,82.6,82.6,29.88,East,93,1.0,1.0,100,0.00,,,0.00,Wunderground v.1.15,2013-10-03 06:20:00,
2013-10-03 02:25:00,82.6,82.6,29.88,East,97,1.0,1.0,100,0.00,,,0.00,Wunderground v.1.15,2013-10-03 06:25:00,
2013-10-03 02:30:00,82.8,82.8,29.87,East,93,2.0,2.0,100,0.00,,,0.00,Wunderground v.1.15,2013-10-03 06:30:00,
2013-10-03 02:40:00,82.8,82.8,29.87,East,90,1.0,1.0,100,0.00,,,0.00,Wunderground v.1.15,2013-10-03 06:40:00,
2013-10-03 02:45:00,82.6,82.6,29.86,NE,56,1.0,8.0,100,0.00,,,0.00,Wunderground v.1.15,2013-10-03 06:45:00,
2013-10-03 02:50:00,82.6,82.6,29.86,ENE,72,3.0,6.0,100,0.00,,,0.00,Wunderground v.1.15,2013-10-03 06:50:00,
2013-10-03 02:55:00,82.6,82.6,29.86,ENE,59,4.0,6.0,100,0.00,,,0.00,Wunderground v.1.15,2013-10-03 06:55:00,
2013-10-03 03:05:00,82.6,82.6,29.85,ENE,65,3.0,6.0,100,0.00,,,0.00,Wunderground v.1.15,2013-10-03 07:05:00,
2013-10-03 03:10:00,82.4,82.4,29.85,NE,56,3.0,10.0,100,0.00,,,0.00,Wunderground v.1.15,2013-10-03 07:10:00,
2013-10-03 03:15:00,82.4,82.4,29.85,ENE,59,5.0,10.0,100,0.00,,,0.00,Wunderground v.1.15,2013-10-03 07:15:00,
2013-10-03 03:20:00,82.6,82.6,29.85,ENE,66,4.0,4.0,100,0.00,,,0.00,Wunderground v.1.15,2013-10-03 07:20:00,
2013-10-03 03:30:00,82.6,82.6,29.85,ENE,61,4.0,4.0,100,0.00,,,0.00,Wunderground v.1.15,2013-10-03 07:30:00,
2013-10-03 03:35:00,82.6,82.6,29.85,ENE,68,5.0,6.0,100,0.00,,,0.00,Wunderground v.1.15,2013-10-03 07:35:00,
2013-10-03 03:40:00,82.6,82.6,29.85,NE,52,3.0,7.0,100,0.00,,,0.00,Wunderground v.1.15,2013-10-03 07:40:00,
2013-10-03 03:45:00,82.6,82.6,29.84,ENE,61,4.0,7.0,100,0.00,,,0.00,Wunderground v.1.15,2013-10-03 07:45:00,
2013-10-03 03:55:00,82.4,82.4,29.84,ENE,58,5.0,8.0,100,0.00,,,0.00,Wunderground v.1.15,2013-10-03 07:55:00,
2013-10-03 04:00:00,82.6,82.6,29.84,ENE,66,5.0,5.0,100,0.00,,,0.00,Wunderground v.1.15,2013-10-03 08:00:00,
2013-10-03 04:10:00,82.6,82.6,29.84,ENE,62,4.0,4.0,100,0.00,,,0.00,Wunderground v.1.15,2013-10-03 08:10:00,
2013-10-03 04:15:00,82.6,82.6,29.84,ENE,65,4.0,7.0,100,0.00,,,0.00,Wunderground v.1.15,2013-10-03 08:15:00,
2013-10-03 04:20:00,82.6,82.6,29.84,ENE,78,4.0,4.0,100,0.00,,,0.00,Wunderground v.1.15,2013-10-03 08:20:00,
2013-10-03 04:25:00,82.4,82.4,29.84,ENE,64,3.0,4.0,100,0.00,,,0.00,Wunderground v.1.15,2013-10-03 08:25:00,
2013-10-03 04:35:00,82.6,82.6,29.84,ESE,106,6.0,7.0,100,0.00,,,0.00,Wunderground v.1.15,2013-10-03 08:35:00,
2013-10-03 04:40:00,82.6,82.6,29.84,ENE,71,5.0,5.0,100,0.00,,,0.00,Wunderground v.1.15,2013-10-03 08:40:00,
2013-10-03 04:50:00,82.6,82.6,29.84,ENE,58,4.0,4.0,100,0.00,,,0.00,Wunderground v.1.15,2013-10-03 08:50:00,
2013-10-03 04:55:00,82.6,82.6,29.84,NE,48,4.0,6.0,100,0.00,,,0.00,Wunderground v.1.15,2013-10-03 08:55:00,
2013-10-03 05:00:00,82.6,82.6,29.83,ENE,62,4.0,5.0,100,0.00,,,0.00,Wunderground v.1.15,2013-10-03 09:00:00,
2013-10-03 05:10:00,82.4,82.4,29.83,ENE,78,6.0,6.0,100,0.00,,,0.00,Wunderground v.1.15,2013-10-03 09:10:00,
2013-10-03 05:15:00,82.6,82.6,29.83,ENE,62,5.0,6.0,100,0.00,,,0.00,Wunderground v.1.15,2013-10-03 09:15:00,
2013-10-03 05:20:00,82.6,82.6,29.83,NE,54,5.0,11.0,100,0.00,,,0.00,Wunderground v.1.15,2013-10-03 09:20:00,
2013-10-03 05:25:00,82.4,82.4,29.83,ENE,68,6.0,11.0,100,0.00,,,0.00,Wunderground v.1.15,2013-10-03 09:25:00,
2013-10-03 05:35:00,82.4,82.4,29.84,ENE,62,5.0,10.0,100,0.00,,,0.00,Wunderground v.1.15,2013-10-03 09:35:00,
2013-10-03 05:40:00,82.4,82.4,29.84,ENE,65,5.0,5.0,100,0.00,,,0.00,Wunderground v.1.15,2013-10-03 09:40:00,
2013-10-03 05:45:00,82.4,82.4,29.84,ESE,102,4.0,5.0,100,0.00,,,0.00,Wunderground v.1.15,2013-10-03 09:45:00,
2013-10-03 05:55:00,82.6,82.6,29.84,East,93,4.0,6.0,100,0.00,,,0.00,Wunderground v.1.15,2013-10-03 09:55:00,
2013-10-03 06:00:00,82.4,82.4,29.84,ENE,58,4.0,4.0,100,0.00,,,0.00,Wunderground v.1.15,2013-10-03 10:00:00,
2013-10-03 06:05:00,82.6,82.6,29.84,East,85,5.0,5.0,100,0.00,,,0.00,Wunderground v.1.15,2013-10-03 10:05:00,
2013-10-03 06:10:00,82.6,82.6,29.84,NE,49,5.0,5.0,100,0.00,,,0.00,Wunderground v.1.15,2013-10-03 10:10:00,
2013-10-03 06:20:00,82.6,82.6,29.84,ENE,76,6.0,6.0,100,0.00,,,0.00,Wunderground v.1.15,2013-10-03 10:20:00,
2013-10-03 06:25:00,82.6,82.6,29.84,East,85,5.0,8.0,100,0.00,,,0.00,Wunderground v.1.15,2013-10-03 10:25:00,
2013-10-03 06:30:00,82.6,82.6,29.85,ENE,62,6.0,11.0,100,0.00,,,0.00,Wunderground v.1.15,2013-10-03 10:30:00,
2013-10-03 06:40:00,82.6,82.6,29.85,NE,55,5.0,5.0,100,0.00,,,0.00,Wunderground v.1.15,2013-10-03 10:40:00,
2013-10-03 06:45:00,82.6,82.6,29.85,NE,54,5.0,5.0,100,0.00,,,0.00,Wunderground v.1.15,2013-10-03 10:45:00,
2013-10-03 06:50:00,82.6,82.6,29.85,ENE,76,4.0,7.0,100,0.00,,,0.00,Wunderground v.1.15,2013-10-03 10:50:00,
2013-10-03 06:55:00,82.6,82.6,29.85,ENE,73,4.0,7.0,100,0.00,,,0.00,Wunderground v.1.15,2013-10-03 10:55:00,
2013-10-03 07:05:00,82.6,82.6,29.86,NE,55,4.0,8.0,100,0.00,,,0.00,Wunderground v.1.15,2013-10-03 11:05:00,
2013-10-03 07:10:00,82.8,82.8,29.86,East,79,6.0,6.0,100,0.00,,,0.00,Wunderground v.1.15,2013-10-03 11:10:00,
2013-10-03 07:15:00,82.8,82.8,29.86,ENE,68,7.0,9.0,100,0.00,,,0.00,Wunderground v.1.15,2013-10-03 11:15:00,
2013-10-03 07:25:00,82.6,82.6,29.86,ESE,102,5.0,7.0,100,0.00,,,0.00,Wunderground v.1.15,2013-10-03 11:25:00,
2013-10-03 07:30:00,82.8,82.8,29.86,East,96,4.0,6.0,100,0.00,,,0.00,Wunderground v.1.15,2013-10-03 11:30:00,
2013-10-03 07:35:00,82.6,82.6,29.86,East,80,6.0,6.0,100,0.00,,,0.00,Wunderground v.1.15,2013-10-03 11:35:00,
2013-10-03 07:40:00,82.8,82.8,29.86,ENE,75,6.0,6.0,100,0.00,,,0.00,Wunderground v.1.15,2013-10-03 11:40:00,
2013-10-03 07:50:00,82.8,82.8,29.87,East,82,5.0,5.0,100,0.00,,,0.00,Wunderground v.1.15,2013-10-03 11:50:00,
2013-10-03 07:55:00,83.0,83.0,29.87,ESE,110,5.0,5.0,100,0.00,,,0.00,Wunderground v.1.15,2013-10-03 11:55:00,
2013-10-03 08:00:00,83.2,83.2,29.88,East,86,5.0,5.0,100,0.00,,,0.00,Wunderground v.1.15,2013-10-03 12:00:00,
2013-10-03 08:05:00,83.2,83.2,29.88,East,83,4.0,5.0,100,0.00,,,0.00,Wunderground v.1.15,2013-10-03 12:05:00,
2013-10-03 08:15:00,83.2,83.2,29.88,ESE,109,4.0,8.0,100,0.00,,,0.00,Wunderground v.1.15,2013-10-03 12:15:00,
2013-10-03 08:20:00,83.6,83.6,29.88,ENE,71,5.0,5.0,100,0.00,,,0.00,Wunderground v.1.15,2013-10-03 12:20:00,
2013-10-03 08:25:00,84.0,84.0,29.88,ENE,78,4.0,7.0,100,0.00,,,0.00,Wunderground v.1.15,2013-10-03 12:25:00,
2013-10-03 08:30:00,84.1,84.1,29.89,ENE,65,4.0,4.0,100,0.00,,,0.00,Wunderground v.1.15,2013-10-03 12:30:00,
2013-10-03 08:40:00,84.3,84.3,29.89,ESE,102,4.0,4.0,100,0.00,,,0.00,Wunderground v.1.15,2013-10-03 12:40:00,
2013-10-03 08:45:00,84.5,84.5,29.90,ESE,102,4.0,7.0,100,0.00,,,0.00,Wunderground v.1.15,2013-10-03 12:45:00,
2013-10-03 08:50:00,84.5,84.5,29.90,ENE,71,4.0,4.0,100,0.00,,,0.00,Wunderground v.1.15,2013-10-03 12:50:00,
2013-10-03 09:00:00,84.3,84.3,29.90,East,92,3.0,3.0,100,0.00,,,0.00,Wunderground v.1.15,2013-10-03 13:00:00,
2013-10-03 09:05:00,84.1,84.1,29.90,East,99,3.0,3.0,100,0.00,,,0.00,Wunderground v.1.15,2013-10-03 13:05:00,
2013-10-03 09:10:00,84.5,84.5,29.90,East,93,3.0,6.0,100,0.00,,,0.00,Wunderground v.1.15,2013-10-03 13:10:00,
2013-10-03 09:20:00,85.3,85.3,29.91,East,90,4.0,6.0,100,0.00,,,0.00,Wunderground v.1.15,2013-10-03 13:20:00,
2013-10-03 09:25:00,85.3,85.3,29.91,East,96,4.0,6.0,100,0.00,,,0.00,Wunderground v.1.15,2013-10-03 13:25:00,
2013-10-03 09:35:00,84.7,84.7,29.91,ESE,116,4.0,4.0,100,0.00,,,0.00,Wunderground v.1.15,2013-10-03 13:35:00,
2013-10-03 09:40:00,84.7,84.7,29.91,ESE,106,3.0,3.0,100,0.00,,,0.00,Wunderground v.1.15,2013-10-03 13:40:00,
2013-10-03 09:45:00,84.5,84.5,29.91,ESE,102,3.0,3.0,100,0.00,,,0.00,Wunderground v.1.15,2013-10-03 13:45:00,
2013-10-03 09:55:00,85.1,85.1,29.91,East,83,5.0,7.0,100,0.00,,,0.00,Wunderground v.1.15,2013-10-03 13:55:00,
2013-10-03 10:00:00,85.5,85.5,29.91,East,79,4.0,4.0,100,0.00,,,0.00,Wunderground v.1.15,2013-10-03 14:00:00,
2013-10-03 10:05:00,85.3,85.3,29.91,ENE,76,4.0,4.0,100,0.00,,,0.00,Wunderground v.1.15,2013-10-03 14:05:00,
2013-10-03 10:15:00,85.5,85.5,29.92,ESE,112,3.0,5.0,100,0.00,,,0.00,Wunderground v.1.15,2013-10-03 14:15:00,
2013-10-03 10:20:00,84.9,84.9,29.92,ENE,69,3.0,12.0,100,0.00,,,0.00,Wunderground v.1.15,2013-10-03 14:20:00,
2013-10-03 10:25:00,84.5,84.5,29.92,ENE,66,5.0,12.0,100,0.00,,,0.00,Wunderground v.1.15,2013-10-03 14:25:00,
2013-10-03 10:35:00,85.1,85.1,29.92,SE,134,5.0,8.0,100,0.00,,,0.00,Wunderground v.1.15,2013-10-03 14:35:00,
2013-10-03 10:40:00,85.5,85.5,29.92,East,95,5.0,9.0,100,0.00,,,0.00,Wunderground v.1.15,2013-10-03 14:40:00,
2013-10-03 10:45:00,85.3,85.3,29.93,East,92,5.0,9.0,100,0.00,,,0.00,Wunderground v.1.15,2013-10-03 14:45:00,
2013-10-03 10:55:00,85.9,85.9,29.93,ESE,106,4.0,8.0,100,0.00,,,0.00,Wunderground v.1.15,2013-10-03 14:55:00,
2013-10-03 11:00:00,85.7,85.7,29.93,ESE,113,4.0,5.0,100,0.00,,,0.00,Wunderground v.1.15,2013-10-03 15:00:00,
2013-10-03 11:05:00,85.9,85.9,29.93,ENE,64,5.0,7.0,100,0.00,,,0.00,Wunderground v.1.15,2013-10-03 15:05:00,
2013-10-03 11:10:00,86.1,86.1,29.93,East,79,4.0,5.0,100,0.00,,,0.00,Wunderground v.1.15,2013-10-03 15:10:00,
2013-10-03 11:20:00,86.5,86.5,29.94,East,85,5.0,8.0,100,0.00,,,0.00,Wunderground v.1.15,2013-10-03 15:20:00,
2013-10-03 11:25:00,87.0,87.0,29.94,East,83,5.0,8.0,100,0.00,,,0.00,Wunderground v.1.15,2013-10-03 15:25:00,
2013-10-03 11:30:00,87.2,87.2,29.94,East,97,4.0,8.0,100,0.00,,,0.00,Wunderground v.1.15,2013-10-03 15:30:00,
2013-10-03 11:45:00,85.9,85.9,29.93,East,89,6.0,7.0,100,0.00,,,0.00,Wunderground v.1.15,2013-10-03 15:45:00,
2013-10-03 11:50:00,86.1,86.1,29.93,NE,40,6.0,7.0,100,0.00,,,0.00,Wunderground v.1.15,2013-10-03 15:50:00,
2013-10-03 12:00:00,85.9,85.9,29.93,East,97,7.0,10.0,100,0.00,,,0.00,Wunderground v.1.15,2013-10-03 16:00:00,
2013-10-03 12:10:00,85.5,85.5,29.93,ESE,116,5.0,5.0,100,0.00,,,0.00,Wunderground v.1.15,2013-10-03 16:10:00,
2013-10-03 12:15:00,85.7,85.7,29.93,ESE,102,4.0,5.0,100,0.00,,,0.00,Wunderground v.1.15,2013-10-03 16:15:00,
2013-10-03 12:20:00,85.7,85.7,29.93,ENE,58,4.0,7.0,100,0.00,,,0.00,Wunderground v.1.15,2013-10-03 16:20:00,
2013-10-03 12:30:00,86.3,86.3,29.93,ESE,116,5.0,5.0,100,0.00,,,0.00,Wunderground v.1.15,2013-10-03 16:30:00,
2013-10-03 12:35:00,86.7,86.7,29.93,ESE,102,5.0,5.0,100,0.00,,,0.00,Wunderground v.1.15,2013-10-03 16:35:00,
2013-10-03 12:40:00,86.5,86.5,29.93,ESE,113,5.0,5.0,100,0.00,,,0.00,Wunderground v.1.15,2013-10-03 16:40:00,
2013-10-03 12:45:00,86.3,86.3,29.92,ESE,104,5.0,12.0,100,0.00,,,0.00,Wunderground v.1.15,2013-10-03 16:45:00,
2013-10-03 12:50:00,85.9,85.9,29.92,ESE,116,7.0,10.0,100,0.00,,,0.00,Wunderground v.1.15,2013-10-03 16:50:00,
2013-10-03 13:00:00,86.7,86.7,29.93,ESE,121,5.0,6.0,100,0.00,,,0.00,Wunderground v.1.15,2013-10-03 17:00:00,
2013-10-03 13:10:00,87.2,87.2,29.93,ESE,113,4.0,4.0,100,0.00,,,0.00,Wunderground v.1.15,2013-10-03 17:10:00,
2013-10-03 13:15:00,86.7,86.7,29.92,ESE,123,4.0,9.0,100,0.00,,,0.00,Wunderground v.1.15,2013-10-03 17:15:00,
2013-10-03 13:25:00,86.5,86.5,29.92,SE,131,3.0,7.0,100,0.00,,,0.00,Wunderground v.1.15,2013-10-03 17:25:00,
2013-10-03 13:30:00,86.5,86.5,29.92,ESE,106,4.0,8.0,100,0.00,,,0.00,Wunderground v.1.15,2013-10-03 17:30:00,
2013-10-03 13:40:00,86.1,86.1,29.92,ESE,112,5.0,5.0,100,0.00,,,0.00,Wunderground v.1.15,2013-10-03 17:40:00,
2013-10-03 13:45:00,86.1,86.1,29.91,ESE,117,5.0,9.0,100,0.00,,,0.00,Wunderground v.1.15,2013-10-03 17:45:00,
2013-10-03 13:50:00,86.1,86.1,29.91,SE,128,5.0,5.0,100,0.00,,,0.00,Wunderground v.1.15,2013-10-03 17:50:00,
2013-10-03 14:00:00,86.3,86.3,29.91,ESE,114,4.0,10.0,100,0.00,,,0.00,Wunderground v.1.15,2013-10-03 18:00:00,
2013-10-03 14:05:00,86.1,86.1,29.91,East,99,4.0,10.0,100,0.00,,,0.00,Wunderground v.1.15,2013-10-03 18:05:00,
2013-10-03 14:10:00,85.7,85.7,29.91,East,80,6.0,6.0,100,0.00,,,0.00,Wunderground v.1.15,2013-10-03 18:10:00,
2013-10-03 14:20:00,86.1,86.1,29.90,East,95,4.0,4.0,100,0.00,,,0.00,Wunderground v.1.15,2013-10-03 18:20:00,
2013-10-03 14:25:00,85.9,85.9,29.90,ESE,119,4.0,4.0,100,0.00,,,0.00,Wunderground v.1.15,2013-10-03 18:25:00,
2013-10-03 14:30:00,85.7,85.7,29.90,East,95,5.0,5.0,100,0.00,,,0.00,Wunderground v.1.15,2013-10-03 18:30:00,
2013-10-03 14:40:00,86.1,86.1,29.90,ESE,112,5.0,5.0,100,0.00,,,0.00,Wunderground v.1.15,2013-10-03 18:40:00,
2013-10-03 14:45:00,86.3,86.3,29.90,ENE,69,5.0,7.0,100,0.00,,,0.00,Wunderground v.1.15,2013-10-03 18:45:00,
2013-10-03 14:50:00,86.1,86.1,29.90,SE,143,5.0,7.0,100,0.00,,,0.00,Wunderground v.1.15,2013-10-03 18:50:00,
2013-10-03 14:55:00,85.9,85.9,29.90,East,89,5.0,7.0,100,0.00,,,0.00,Wunderground v.1.15,2013-10-03 18:55:00,
2013-10-03 15:00:00,85.7,85.7,29.89,SE,136,4.0,8.0,100,0.00,,,0.00,Wunderground v.1.15,2013-10-03 19:00:00,
2013-10-03 15:10:00,85.1,85.1,29.89,East,82,5.0,5.0,100,0.00,,,0.00,Wunderground v.1.15,2013-10-03 19:10:00,
2013-10-03 15:15:00,85.1,85.1,29.89,ESE,102,4.0,5.0,100,0.00,,,0.00,Wunderground v.1.15,2013-10-03 19:15:00,
2013-10-03 15:20:00,85.1,85.1,29.89,ESE,116,3.0,3.0,100,0.00,,,0.00,Wunderground v.1.15,2013-10-03 19:20:00,
2013-10-03 15:30:00,85.1,85.1,29.89,ESE,110,2.0,5.0,100,0.00,,,0.00,Wunderground v.1.15,2013-10-03 19:30:00,
2013-10-03 15:35:00,85.3,85.3,29.89,East,79,2.0,5.0,100,0.00,,,0.00,Wunderground v.1.15,2013-10-03 19:35:00,
2013-10-03 15:45:00,85.1,85.1,29.88,ESE,109,2.0,2.0,100,0.00,,,0.00,Wunderground v.1.15,2013-10-03 19:45:00,
2013-10-03 15:50:00,85.3,85.3,29.88,East,80,2.0,2.0,100,0.00,,,0.00,Wunderground v.1.15,2013-10-03 19:50:00,
2013-10-03 15:55:00,85.3,85.3,29.88,ENE,66,2.0,4.0,100,0.00,,,0.00,Wunderground v.1.15,2013-10-03 19:55:00,
2013-10-03 16:05:00,85.1,85.1,29.88,East,82,3.0,7.0,100,0.00,,,0.00,Wunderground v.1.15,2013-10-03 20:05:00,
2013-10-03 16:10:00,85.3,85.3,29.88,ESE,112,3.0,3.0,100,0.00,,,0.00,Wunderground v.1.15,2013-10-03 20:10:00,
2013-10-03 16:15:00,85.3,85.3,29.88,ENE,71,3.0,5.0,100,0.00,,,0.00,Wunderground v.1.15,2013-10-03 20:15:00,
2013-10-03 16:25:00,85.1,85.1,29.88,ESE,107,4.0,8.0,100,0.00,,,0.00,Wunderground v.1.15,2013-10-03 20:25:00,
2013-10-03 16:30:00,85.1,85.1,29.88,East,83,4.0,7.0,100,0.00,,,0.00,Wunderground v.1.15,2013-10-03 20:30:00,
2013-10-03 16:35:00,85.1,85.1,29.88,East,88,4.0,7.0,100,0.00,,,0.00,Wunderground v.1.15,2013-10-03 20:35:00,
2013-10-03 16:40:00,84.9,84.9,29.88,East,99,3.0,5.0,100,0.00,,,0.00,Wunderground v.1.15,2013-10-03 20:40:00,
2013-10-03 16:50:00,84.9,84.9,29.88,East,83,2.0,2.0,100,0.00,,,0.00,Wunderground v.1.15,2013-10-03 20:50:00,
2013-10-03 16:55:00,84.9,84.9,29.88,ESE,116,3.0,3.0,100,0.00,,,0.00,Wunderground v.1.15,2013-10-03 20:55:00,
2013-10-03 17:00:00,85.1,85.1,29.88,ENE,65,2.0,6.0,100,0.00,,,0.00,Wunderground v.1.15,2013-10-03 21:00:00,
2013-10-03 17:10:00,85.1,85.1,29.88,East,88,2.0,3.0,100,0.00,,,0.00,Wunderground v.1.15,2013-10-03 21:10:00,
2013-10-03 17:15:00,84.7,84.7,29.87,NE,41,3.0,3.0,100,0.00,,,0.00,Wunderground v.1.15,2013-10-03 21:15:00,
2013-10-03 17:20:00,84.7,84.7,29.87,East,83,4.0,5.0,100,0.00,,,0.00,Wunderground v.1.15,2013-10-03 21:20:00,
2013-10-03 17:25:00,84.7,84.7,29.87,East,85,3.0,5.0,100,0.00,,,0.00,Wunderground v.1.15,2013-10-03 21:25:00,
2013-10-03 17:30:00,84.9,84.9,29.87,East,90,2.0,2.0,100,0.00,,,0.00,Wunderground v.1.15,2013-10-03 21:30:00,
2013-10-03 17:35:00,84.9,84.9,29.87,East,79,2.0,2.0,100,0.00,,,0.00,Wunderground v.1.15,2013-10-03 21:35:00,
2013-10-03 17:45:00,84.9,84.9,29.87,NE,55,2.0,5.0,100,0.00,,,0.00,Wunderground v.1.15,2013-10-03 21:45:00,
2013-10-03 17:50:00,84.7,84.7,29.87,ENE,65,3.0,6.0,100,0.00,,,0.00,Wunderground v.1.15,2013-10-03 21:50:00,
2013-10-03 18:00:00,84.5,84.5,29.87,ENE,58,4.0,8.0,100,0.00,,,0.00,Wunderground v.1.15,2013-10-03 22:00:00,
2013-10-03 18:05:00,84.3,84.3,29.87,East,95,3.0,8.0,100,0.00,,,0.00,Wunderground v.1.15,2013-10-03 22:05:00,
2013-10-03 18:10:00,84.1,84.1,29.87,NE,52,4.0,5.0,100,0.00,,,0.00,Wunderground v.1.15,2013-10-03 22:10:00,
2013-10-03 18:15:00,84.0,84.0,29.88,ENE,72,4.0,7.0,100,0.00,,,0.00,Wunderground v.1.15,2013-10-03 22:15:00,
2013-10-03 18:20:00,84.0,84.0,29.88,ENE,65,5.0,5.0,100,0.00,,,0.00,Wunderground v.1.15,2013-10-03 22:20:00,
2013-10-03 18:30:00,84.0,84.0,29.88,ENE,69,3.0,3.0,100,0.00,,,0.00,Wunderground v.1.15,2013-10-03 22:30:00,
2013-10-03 18:35:00,83.8,83.8,29.88,ENE,69,3.0,6.0,100,0.00,,,0.00,Wunderground v.1.15,2013-10-03 22:35:00,
2013-10-03 18:40:00,83.8,83.8,29.88,East,88,3.0,3.0,100,0.00,,,0.00,Wunderground v.1.15,2013-10-03 22:40:00,
2013-10-03 18:50:00,83.8,83.8,29.89,NNE,16,1.0,1.0,100,0.00,,,0.00,Wunderground v.1.15,2013-10-03 22:50:00,
2013-10-03 18:55:00,83.0,83.0,29.89,NNE,20,4.0,8.0,100,0.00,,,0.00,Wunderground v.1.15,2013-10-03 22:55:00,
2013-10-03 19:00:00,82.0,82.0,29.89,NNE,23,6.0,7.0,100,0.00,,,0.00,Wunderground v.1.15,2013-10-03 23:00:00,
2013-10-03 19:10:00,80.7,80.7,29.89,North,8,8.0,8.0,100,0.00,,,0.00,Wunderground v.1.15,2013-10-03 23:10:00,
2013-10-03 19:15:00,80.3,80.3,29.89,North,7,7.0,8.0,100,0.00,,,0.00,Wunderground v.1.15,2013-10-03 23:15:00,
2013-10-03 19:20:00,80.1,80.1,29.89,NNE,14,6.0,6.0,100,0.00,,,0.00,Wunderground v.1.15,2013-10-03 23:20:00,
2013-10-03 19:30:00,80.7,80.7,29.89,NNE,17,4.0,4.0,100,0.00,,,0.00,Wunderground v.1.15,2013-10-03 23:30:00,
2013-10-03 19:35:00,80.5,80.5,29.89,NE,54,3.0,4.0,100,0.00,,,0.00,Wunderground v.1.15,2013-10-03 23:35:00,
2013-10-03 19:40:00,80.5,80.5,29.89,NE,49,3.0,7.0,100,0.00,,,0.00,Wunderground v.1.15,2013-10-03 23:40:00,
2013-10-03 19:45:00,80.5,80.5,29.89,ENE,59,3.0,7.0,100,0.00,,,0.00,Wunderground v.1.15,2013-10-03 23:45:00,
2013-10-03 19:55:00,80.3,80.3,29.89,NNE,28,3.0,3.0,100,0.00,,,0.00,Wunderground v.1.15,2013-10-03 23:55:00,
2013-10-03 20:00:00,80.3,80.3,29.90,NE,56,3.0,3.0,100,0.00,,,0.00,Wunderground v.1.15,2013-10-04 00:00:00,
2013-10-03 20:05:00,80.3,80.3,29.90,NNE,28,3.0,8.0,100,0.00,,,0.00,Wunderground v.1.15,2013-10-04 00:05:00,
2013-10-03 20:15:00,80.3,80.3,29.90,NNE,13,4.0,6.0,100,0.00,,,0.00,Wunderground v.1.15,2013-10-04 00:15:00,
2013-10-03 20:20:00,80.3,80.3,29.90,NE,51,5.0,5.0,100,0.00,,,0.00,Wunderground v.1.15,2013-10-04 00:20:00,
2013-10-03 20:25:00,80.3,80.3,29.90,NE,48,4.0,5.0,100,0.00,,,0.00,Wunderground v.1.15,2013-10-04 00:25:00,
2013-10-03 20:35:00,80.7,80.7,29.90,NE,38,2.0,6.0,100,0.00,,,0.00,Wunderground v.1.15,2013-10-04 00:35:00,
2013-10-03 20:40:00,80.7,80.7,29.90,ENE,58,2.0,7.0,100,0.00,,,0.00,Wunderground v.1.15,2013-10-04 00:40:00,
2013-10-03 20:45:00,80.7,80.7,29.91,ENE,58,1.0,7.0,100,0.00,,,0.00,Wunderground v.1.15,2013-10-04 00:45:00,
2013-10-03 20:55:00,80.9,80.9,29.91,ENE,64,1.0,1.0,100,0.00,,,0.00,Wunderground v.1.15,2013-10-04 00:55:00,
2013-10-03 21:00:00,80.9,80.9,29.91,ENE,73,2.0,2.0,100,0.00,,,0.00,Wunderground v.1.15,2013-10-04 01:00:00,
2013-10-03 21:10:00,81.1,81.1,29.91,ENE,58,2.0,2.0,100,0.00,,,0.00,Wunderground v.1.15,2013-10-04 01:10:00,
2013-10-03 21:15:00,81.1,81.1,29.91,NE,55,1.0,8.0,100,0.00,,,0.00,Wunderground v.1.15,2013-10-04 01:15:00,
2013-10-03 21:20:00,81.2,81.2,29.91,ENE,64,2.0,9.0,100,0.00,,,0.00,Wunderground v.1.15,2013-10-04 01:20:00,
2013-10-03 21:25:00,81.2,81.2,29.91,ENE,59,4.0,9.0,100,0.00,,,0.00,Wunderground v.1.15,2013-10-04 01:25:00,
2013-10-03 21:35:00,81.6,81.6,29.91,ENE,62,5.0,6.0,100,0.00,,,0.00,Wunderground v.1.15,2013-10-04 01:35:00,
2013-10-03 21:40:00,81.8,81.8,29.91,NE,49,6.0,6.0,100,0.00,,,0.00,Wunderground v.1.15,2013-10-04 01:40:00,
2013-10-03 21:50:00,81.8,81.8,29.92,NE,54,5.0,5.0,100,0.00,,,0.00,Wunderground v.1.15,2013-10-04 01:50:00,
2013-10-03 21:55:00,81.8,81.8,29.92,NE,51,3.0,5.0,100,0.00,,,0.00,Wunderground v.1.15,2013-10-04 01:55:00,
2013-10-03 22:00:00,81.8,81.8,29.92,NE,51,2.0,8.0,100,0.00,,,0.00,Wunderground v.1.15,2013-10-04 02:00:00,
2013-10-03 22:10:00,81.8,81.8,29.92,NNE,32,4.0,4.0,100,0.00,,,0.00,Wunderground v.1.15,2013-10-04 02:10:00,
2013-10-03 22:15:00,81.8,81.8,29.92,ENE,58,3.0,6.0,100,0.00,,,0.00,Wunderground v.1.15,2013-10-04 02:15:00,
2013-10-03 22:20:00,81.8,81.8,29.92,NE,45,4.0,8.0,100,0.00,,,0.00,Wunderground v.1.15,2013-10-04 02:20:00,
2013-10-03 22:30:00,81.8,81.8,29.92,NE,54,4.0,4.0,100,0.00,,,0.00,Wunderground v.1.15,2013-10-04 02:30:00,
2013-10-03 22:35:00,82.0,82.0,29.92,NE,48,2.0,4.0,100,0.00,,,0.00,Wunderground v.1.15,2013-10-04 02:35:00,
2013-10-03 22:40:00,82.0,82.0,29.92,NE,54,1.0,5.0,100,0.00,,,0.00,Wunderground v.1.15,2013-10-04 02:40:00,
2013-10-03 22:50:00,82.0,82.0,29.92,ENE,68,6.0,10.0,100,0.00,,,0.00,Wunderground v.1.15,2013-10-04 02:50:00,
2013-10-03 22:55:00,82.6,82.6,29.92,NE,56,8.0,10.0,100,0.00,,,0.00,Wunderground v.1.15,2013-10-04 02:55:00,
2013-10-03 23:00:00,82.8,82.8,29.92,ENE,61,7.0,7.0,100,0.00,,,0.00,Wunderground v.1.15,2013-10-04 03:00:00,
2013-10-03 23:05:00,83.0,83.0,29.92,ENE,64,8.0,8.0,100,0.00,,,0.00,Wunderground v.1.15,2013-10-04 03:05:00,
2013-10-03 23:15:00,83.0,83.0,29.92,ENE,66,6.0,10.0,100,0.00,,,0.00,Wunderground v.1.15,2013-10-04 03:15:00,
2013-10-03 23:20:00,83.0,83.0,29.92,ENE,65,6.0,6.0,100,0.00,,,0.00,Wunderground v.1.15,2013-10-04 03:20:00,
2013-10-03 23:25:00,83.0,83.0,29.92,NE,48,7.0,11.0,100,0.00,,,0.00,Wunderground v.1.15,2013-10-04 03:25:00,
2013-10-03 23:30:00,83.0,83.0,29.92,NE,56,7.0,9.0,100,0.00,,,0.00,Wunderground v.1.15,2013-10-04 03:30:00,
2013-10-03 23:40:00,83.0,83.0,29.92,ENE,58,6.0,16.0,100,0.00,,,0.00,Wunderground v.1.15,2013-10-04 03:40:00,
2013-10-03 23:45:00,83.0,83.0,29.92,ENE,61,7.0,16.0,100,0.00,,,0.00,Wunderground v.1.15,2013-10-04 03:45:00,
2013-10-03 23:50:00,83.2,83.2,29.92,ENE,62,7.0,7.0,100,0.00,,,0.00,Wunderground v.1.15,2013-10-04 03:50:00,